Regional Weather Roundup
Issued by NWS

Home | Current Version | Previous Version | Graphics & Text | Print | Product List | Glossary On
Versions: 1 2 3 4 5 6 7 8 9 10 11 12 13 14 15 16 17 18 19 20 21 22 23 24 25 26 27 28 29 30 31 32 33 34 35 36 37 38 39 40 41 42 43 44 45 46 47 48 49 50
458
ASUS43 KLOT 240208
RWRIL

ILLINOIS REGIONAL WEATHER ROUNDUP
NATIONAL WEATHER SERVICE CHICAGO/ROMEOVILLE IL
900 PM CDT MON MAY 23 2016

NOTE: "FAIR" INDICATES FEW OR NO CLOUDS BELOW 12,000 FEET WITH NO
SIGNIFICANT WEATHER AND/OR OBSTRUCTIONS TO VISIBILITY.

* THESE STATIONS ARE NOT UNDER NWS QUALITY CONTROL. THEY ALSO MAY NOT
  REPORT WEATHER SUCH AS PRECIPITATION OR FOG.

ILZ001-002-007-009-015-016-024-240300-
NORTHWEST ILLINOIS

CITY           SKY/WX    TMP DP  RH WIND       PRES   REMARKS
MOLINE         MOCLDY    73  47  39 S5        29.86S
STERLING*      CLOUDY    75  48  38 CALM      29.88S
SAVANNA*       CLOUDY    72  51  47 S5        29.86S
$$

ILZ003-004-008-010-011-017-018-240300-
NORTH CENTRAL ILLINOIS

CITY           SKY/WX    TMP DP  RH WIND       PRES   REMARKS
ROCKFORD       MOCLDY    73  47  39 S6        29.90S
FREEPORT*      CLEAR     67  47  48 S6        29.90R
ROCHELLE*      CLOUDY    70  46  41 S7        29.89S HAZE
DE KALB*       CLOUDY    69  47  45 S6        29.91S
$$

ILZ005-006-012>014-019>023-240300-
NORTHEAST ILLINOIS

CITY           SKY/WX    TMP DP  RH WIND       PRES   REMARKS
CHICAGO-OHARE  MOCLDY    70  38  31 SE10      29.91S
CHICAGO-MIDWAY MOCLDY    72  39  30 E6        29.91F
AURORA         CLOUDY    70  46  42 SE6       29.90S
LANSING*       CLEAR     66  39  36 SE5       29.93S
JOLIET*        CLEAR     70  45  41 SE5       29.91S
WAUKEGAN       CLEAR     64  40  41 SE6       29.91S
DUPAGE AIRPORT PTCLDY    69  45  41 SE6       29.90S
KANKAKEE*      CLEAR    N/A N/A N/A SE7       29.93S
WHEELING       CLEAR     69  37  30 SE6       29.92S
MORRIS*        PTCLDY    73  46  37 CALM      29.89S
ROMEOVILLE*    PTCLDY    69  38  31 SE9       29.91S
NORTHERLY ISL    N/A     61  44  53 SE1         N/A
NORTHERLY ISL    N/A     61  44  53 SE1         N/A
$$

LMZ740>746-240300-
SOUTHERN LAKE MICHIGAN

STATION/POSITION SKY/WX   TEMP    WIND        PRES    VSBY  WAVE
                          AIR SEA DIR/SP/G                  HT/PER
                          (F)     (DEG/KT/KT) (MB)    (MI)  (FT/S)
SOUTHERN BUOY              58 51  130/ 10/ 10 1013.0F         0
WILMETTE HARBOR            58 53  170/  6/  8   N/A           1/ 2
HARRISON CRIB              66     100/ 18/ 19   N/A
BURNHAM HARBOR             60      CALM  /  2   N/A
CALUMET HARBOR             64                   N/A
BURNS HARBOR               61      80/  5/ 13 1014.2S
MICHIGAN CITY              64      50/  4/  4   N/A
MICHIGAN CITY 6N           62 58  100/  6/  8   N/A           0
ST. JOSEPH                 65 61  110/  6/  6   N/A           0
$$

ILZ025>027-034>036-040-047-049-050-058-095>099-240300-
WEST-CENTRAL ILLINOIS

CITY           SKY/WX    TMP DP  RH WIND       PRES   REMARKS
QUINCY         CLOUDY    72  48  42 S8        29.88S
GALESBURG*     CLOUDY    69  50  49 CALM      29.88S
MACOMB*        CLOUDY    69  48  47 S6        29.90S
JACKSONVILLE*  CLOUDY    73  52  46 S6        29.90S
PITTSFIELD*    CLOUDY    73  52  48 S7        29.91S
$$

ILZ028>032-037-038-041>044-048-051>054-059>061-240300-
CENTRAL ILLINOIS

CITY           SKY/WX    TMP DP  RH WIND       PRES   REMARKS
PONTIAC        CLOUDY    75  47  37 SE8       29.92S
BLOOMINGTON    PTCLDY    70  52  52 S6        29.93S
DECATUR        CLOUDY    72  52  49 S8        29.93S
PEORIA         CLOUDY    73  47  39 S3        29.89S
LACON*         PTCLDY    73  48  41 S3        29.88S
LINCOLN*       CLOUDY    74  50  42 S3        29.91S
SPRINGFIELD    PTCLDY    72  50  45 S7        29.91S
TAYLORVILLE    PTCLDY    70  53  55 S6        29.93S
$$

ILZ033-039-045-046-055>057-062-063-240300-
EAST-CENTRAL ILLINOIS

CITY           SKY/WX    TMP DP  RH WIND       PRES   REMARKS
CHAMPAIGN      CLOUDY    71  44  37 SE10      29.94F
RANTOUL*       PTCLDY    73  45  35 S8        29.94S
MATTOON        CLEAR     68  48  48 SE6       29.95R
PARIS*         CLEAR     69  48  48 CALM      29.98R
$$

ILZ079-100>102-240300-
SOUTHWEST ILLINOIS

CITY           SKY/WX    TMP DP  RH WIND       PRES   REMARKS
ALTON          CLEAR     70  54  56 S6        29.93R
BELLEVILLE     CLOUDY    69  58  68 SE2       29.92R
CAHOKIA*       PTCLDY    72  55  55 S5        29.93R
SPARTA*        CLOUDY    71  56  58 CALM      29.95R
$$

ILZ064>066-069>071-074>076-080>082-084>086-088>090-092>094-240300-
SOUTH-CENTRAL ILLINOIS

CITY           SKY/WX    TMP DP  RH WIND       PRES   REMARKS
CARBONDALE     CLOUDY    67  59  75 CALM      29.94S
CAIRO*         CLOUDY    70  60  68 CALM      29.94R
EFFINGHAM*     CLOUDY    68  58  70 E6        29.96S
MARION         CLOUDY    68  59  73 CALM      29.95S
MT. VERNON     CLOUDY    63  55  77 NE3       29.96R
CENTRALIA*     CLOUDY    67  62  85 CALM      29.94R
SALEM*         CLEAR     69  57  65 SE3       29.95R
METROPOLIS*    CLOUDY    69  62  78 CALM      29.96R
$$

ILZ067-068-072-073-078-083-087-091-240300-
SOUTHEAST ILLINOIS

CITY           SKY/WX    TMP DP  RH WIND       PRES   REMARKS
LAWRENCEVILLE  CLEAR     67  55  65 MISG      29.97S
FLORA*         CLEAR     70  57  62 SE5       29.95S
FAIRFIELD*     CLEAR     72  53  51 CALM      29.94S
HARRISBURG*    CLEAR     71  62  73 E3        29.96R
ROBINSON*      CLEAR     61  54  77 SE5       29.97S
CARMI*         CLEAR     67  59  73 SE3       29.96R
$$

ABBREVIATIONS USED IN REMARKS
   TC - TEMPERATURE IN CELSIUS
  WCI - WIND CHILL INDEX
   HX - HEAT INDEX
  VSB - VISIBILITY
$$





USA.gov is the U.S. government's official web portal to all federal, state and local government web resources and services.